GW1869 Weather Reports


time (UTC)temp
F
wind
direction
speed
knots
gust
knots
rain 1hr
in
rain 24hr
in
rain mn
in
humidity
%
barometer
mb
20260506014046 69 299 3.5 9.6 0.00 0.49 0.16 34 1011.7
20260506013547 69 319 5.2 9.6 0.00 0.49 0.16 33 1011.7
20260506013057 69 303 4.3 8.7 0.00 0.49 0.16 33 1011.7
20260506012547 70 274 4.3 9.6 0.00 0.49 0.16 34 1011.6
20260506012048 70 309 6.1 9.6 0.00 0.49 0.16 34 1011.6
20260506011617 71 295 2.6 6.1 0.00 0.49 0.16 34 1011.5
20260506011047 71 288 1.7 10.4 0.00 0.49 0.16 33 1011.4
20260506010549 71 253 2.6 12.2 0.00 0.49 0.16 33 1011.4
20260506010053 71 299 5.2 12.2 0.00 0.49 0.16 33 1011.3
20260506005548 71 310 4.3 8.7 0.00 0.52 0.16 31 1011.3
20260506005047 71 278 2.6 7.0 0.00 0.52 0.16 30 1011.3
20260506004601 72 302 2.6 6.1 0.00 0.52 0.16 30 1011.2
20260506004048 73 301 3.5 6.1 0.00 0.52 0.16 29 1011.1
20260506003547 73 310 1.7 7.8 0.00 0.52 0.16 29 1011.1
20260506003052 73 271 3.5 9.6 0.00 0.52 0.16 28 1011.0
20260506002548 73 287 4.3 9.6 0.00 0.52 0.16 29 1011.0
20260506002045 74 280 3.5 7.8 0.00 0.52 0.16 27 1011.0
20260506001601 74 296 1.7 6.1 0.00 0.52 0.16 28 1011.0
20260506001047 73 326 1.7 6.1 0.00 0.52 0.16 27 1010.9
20260506000551 74 276 1.7 9.6 0.00 0.52 0.16 27 1011.0
20260506000117 75 304 2.6 9.6 0.00 0.52 0.16 28 1010.9
20260505235550 76 291 2.6 6.1 0.00 0.52 0.16 27 1010.8
20260505235047 76 279 2.6 6.1 0.00 0.52 0.16 27 1010.9
20260505234556 76 261 2.6 5.2 0.00 0.52 0.16 26 1010.8
20260505234047 76 259 1.7 7.8 0.00 0.52 0.16 26 1010.8
20260505233548 75 332 3.5 7.8 0.00 0.52 0.16 27 1010.7
20260505233059 75 271 3.5 7.8 0.00 0.52 0.16 27 1010.8
20260505232546 75 250 2.6 7.0 0.00 0.52 0.16 26 1010.8
20260505232050 74 259 3.5 7.0 0.00 0.52 0.16 27 1010.8
20260505231601 74 242 1.7 4.3 0.00 0.52 0.16 30 1010.7
20260505231051 73 269 0.0 6.1 0.00 0.52 0.16 32 1010.8
20260505230545 72 231 1.7 6.1 0.00 0.52 0.16 31 1010.8
20260505230237 73 188 1.7 5.2 0.00 0.52 0.16 31 1010.9
20260505225549 74 0 0.9 4.3 0.00 0.52 0.16 30 1011.0
20260505225046 74 257 0.9 5.2 0.00 0.52 0.16 31 1011.0
20260505224557 73 288 1.7 5.2 0.00 0.52 0.16 31 1011.0
20260505224048 74 323 1.7 5.2 0.00 0.52 0.16 31 1011.2
20260505223551 75 139 1.7 5.2 0.00 0.52 0.16 30 1011.0
20260505223054 74 251 1.7 7.0 0.00 0.52 0.16 30 1011.1
20260505222547 75 226 1.7 7.0 0.00 0.52 0.16 29 1011.3
20260505222047 76 276 1.7 7.0 0.00 0.52 0.16 28 1011.2
20260505221600 76 0 1.7 6.1 0.00 0.52 0.16 29 1011.2
20260505221047 76 317 3.5 6.1 0.00 0.52 0.16 30 1011.4
20260505220550 76 275 1.7 5.2 0.00 0.52 0.16 30 1011.3
20260505220051 75 267 1.7 6.1 0.00 0.52 0.16 32 1011.5
20260505215548 75 241 0.9 7.8 0.00 0.52 0.16 34 1011.4
20260505215048 76 217 2.6 7.8 0.00 0.52 0.16 32 1011.6
20260505214550 76 295 3.5 7.8 0.00 0.52 0.16 30 1011.6
20260505214051 76 293 4.3 7.0 0.00 0.52 0.16 28 1011.7
20260505213548 77 300 2.6 6.1 0.00 0.52 0.16 31 1011.7
20260505213055 76 64 2.6 7.0 0.00 0.52 0.16 29 1011.7
20260505212547 76 281 2.6 9.6 0.00 0.52 0.16 30 1011.7
20260505212047 76 323 3.5 9.6 0.00 0.52 0.16 28 1011.9
20260505211552 77 269 3.5 9.6 0.00 0.52 0.16 28 1011.9
20260505211047 76 273 1.7 7.8 0.00 0.52 0.16 30 1011.8
20260505210548 76 206 3.5 11.3 0.00 0.52 0.16 31 1011.7
20260505210049 76 261 3.5 11.3 0.00 0.52 0.16 29 1011.9
20260505205548 76 285 2.6 7.8 0.00 0.52 0.16 31 1011.9
20260505205048 76 325 2.6 9.6 0.00 0.52 0.16 33 1011.9
20260505204600 76 174 4.3 9.6 0.00 0.52 0.16 34 1012.1
20260505204048 76 288 1.7 5.2 0.00 0.52 0.16 35 1012.0
20260505203547 76 257 1.7 8.7 0.00 0.52 0.16 36 1012.0
20260505203059 75 262 1.7 8.7 0.00 0.52 0.16 34 1012.0
20260505202548 76 238 1.7 5.2 0.00 0.52 0.16 36 1012.1
20260505202047 75 252 0.9 5.2 0.00 0.52 0.16 40 1012.0
20260505201552 73 248 2.6 7.0 0.00 0.52 0.16 41 1012.1
20260505201047 72 123 1.7 7.0 0.00 0.52 0.16 41 1012.2
20260505200547 71 274 3.5 7.0 0.00 0.52 0.16 42 1012.2
20260505200054 71 207 0.9 4.3 0.00 0.52 0.16 44 1012.2
20260505195547 70 294 1.7 4.3 0.00 0.52 0.16 51 1012.3
20260505195048 70 326 0.0 2.6 0.00 0.52 0.16 51 1012.2
20260505194606 70 236 0.0 2.6 0.00 0.52 0.16 51 1012.3
20260505194047 69 0 0.0 2.6 0.00 0.52 0.16 51 1012.3
20260505193548 69 0 0.0 3.5 0.00 0.52 0.16 52 1012.3
20260505193101 70 152 0.0 3.5 0.00 0.52 0.16 53 1012.3
20260505192548 69 0 1.7 6.1 0.00 0.52 0.16 53 1012.5
20260505192048 69 312 2.6 6.1 0.00 0.52 0.16 53 1012.5
20260505191606 69 318 2.6 6.1 0.00 0.52 0.16 52 1012.5
20260505191050 69 52 1.7 5.2 0.00 0.52 0.16 51 1012.4
20260505190548 69 23 0.9 2.6 0.00 0.52 0.16 54 1012.7
20260505190055 70 322 0.0 2.6 0.00 0.52 0.16 53 1012.7
20260505185547 70 32 0.0 2.6 0.00 0.52 0.16 54 1012.8
20260505185047 68 0 0.0 2.6 0.00 0.52 0.16 55 1013.0
20260505184555 68 0 0.0 3.5 0.00 0.52 0.16 58 1013.2
20260505184047 68 25 0.9 3.5 0.00 0.52 0.16 55 1013.3
20260505183546 68 0 0.0 2.6 0.00 0.52 0.16 55 1013.4
20260505183055 67 301 0.0 2.6 0.00 0.52 0.16 59 1013.4
20260505182550 67 0 0.0 2.6 0.00 0.52 0.16 56 1013.4
20260505182051 68 129 0.0 2.6 0.00 0.52 0.16 57 1013.5
20260505181554 67 275 0.9 2.6 0.00 0.52 0.16 61 1013.6
20260505181048 67 0 0.9 2.6 0.00 0.52 0.16 59 1013.6
20260505180547 66 0 0.9 2.6 0.00 0.52 0.16 61 1013.5
20260505180056 67 22 0.9 3.5 0.00 0.52 0.16 60 1013.5
20260505175548 67 328 0.9 4.3 0.00 0.52 0.16 60 1013.7
20260505175048 67 0 0.9 4.3 0.00 0.52 0.16 61 1013.5
20260505174553 67 333 0.9 3.5 0.00 0.52 0.16 60 1013.7
20260505174047 67 9 0.9 3.5 0.00 0.52 0.16 59 1013.6
20260505173548 68 286 1.7 3.5 0.00 0.52 0.16 60 1013.8
20260505173112 68 0 0.0 3.5 0.00 0.52 0.16 62 1013.6
20260505172547 68 302 0.9 3.5 0.00 0.52 0.16 59 1013.7
20260505172047 69 0 0.0 1.7 0.00 0.52 0.16 56 1013.8
20260505171618 68 0 0.0 0.9 0.00 0.52 0.16 60 1013.8
20260505171047 67 0 0.0 0.9 0.00 0.52 0.16 59 1013.8
20260505170546 67 0 0.0 1.7 0.00 0.52 0.16 60 1013.7
20260505170052 66 0 0.0 3.5 0.00 0.52 0.16 63 1013.7
20260505165548 65 316 0.9 3.5 0.00 0.52 0.16 65 1013.6
20260505165048 65 295 0.9 3.5 0.00 0.52 0.16 68 1013.6
20260505164555 64 0 0.0 2.6 0.00 0.52 0.16 64 1013.6
20260505164048 64 0 0.0 0.9 0.00 0.52 0.16 68 1013.6
20260505163728 64 0 0.0 0.9 0.00 0.52 0.16 68 1013.6
20260505163056 63 0 0.0 0.9 0.00 0.52 0.16 69 1013.8
20260505162548 63 0 0.0 0.9 0.00 0.52 0.16 72 1013.9
20260505162048 63 0 0.0 0.9 0.00 0.52 0.16 74 1013.9
20260505161556 63 0 0.0 0.9 0.00 0.52 0.16 74 1013.9
20260505161049 63 0 0.0 0.9 0.00 0.52 0.16 74 1013.9
20260505160550 63 0 0.0 0.9 0.00 0.52 0.16 73 1013.9
20260505153052 62 0 0.0 0.9 0.00 0.52 0.16 78 1013.5
20260505152548 61 0 0.0 0.9 0.00 0.52 0.16 77 1013.4
20260505152049 61 0 0.0 0.9 0.00 0.52 0.16 78 1013.4
20260505151554 61 0 0.0 0.9 0.00 0.52 0.16 78 1013.4
20260505151049 61 0 0.0 0.9 0.00 0.52 0.16 80 1013.3
20260505150548 61 117 0.0 0.9 0.00 0.52 0.16 81 1013.4
20260505150125 61 0 0.0 0.9 0.00 0.52 0.16 81 1013.3
20260505140548 60 0 0.0 0.0 0.00 0.52 0.16 84 1013.0
20260505130105 57 0 0.0 0.9 0.01 0.52 0.16 87 1012.6
20260505124559 57 0 0.0 0.0 0.01 0.52 0.16 89 1012.4
20260505124052 57 0 0.0 0.0 0.01 0.52 0.16 89 1012.4
20260505123553 57 0 0.0 0.0 0.01 0.52 0.16 89 1012.5
20260505123101 57 0 0.0 0.0 0.01 0.52 0.16 90 1012.5
20260505122548 57 0 0.0 0.0 0.01 0.52 0.16 89 1012.3
20260505122049 57 0 0.0 0.0 0.01 0.52 0.16 88 1012.4
20260505121621 57 0 0.0 0.0 0.01 0.52 0.16 87 1012.4
20260505121049 57 0 0.0 0.0 0.00 0.51 0.15 86 1011.9
20260505120548 57 0 0.0 0.9 0.00 0.51 0.15 85 1012.2
20260505120055 57 0 0.0 0.9 0.00 0.51 0.15 84 1012.1
20260505115546 57 0 0.0 0.9 0.00 0.51 0.15 84 1012.1
20260505115048 57 75 0.0 1.7 0.00 0.51 0.15 84 1012.1
20260505114554 57 58 0.0 1.7 0.01 0.51 0.15 82 1012.1
20260505114048 57 0 0.0 1.7 0.01 0.51 0.15 84 1012.1
20260505113548 57 53 0.0 1.7 0.01 0.51 0.15 88 1012.0
20260505113056 57 0 0.0 0.9 0.01 0.51 0.15 89 1012.4
20260505112549 57 0 0.0 0.9 0.01 0.51 0.15 89 1012.5
20260505112047 57 0 0.0 1.7 0.01 0.51 0.15 89 1012.3
20260505111555 57 0 0.0 1.7 0.02 0.51 0.15 89 1012.3
20260505111050 57 0 0.0 1.7 0.02 0.51 0.15 88 1012.4
20260505110552 57 0 0.0 0.9 0.02 0.51 0.15 89 1012.3
20260505102047 57 61 0.0 1.7 0.04 0.50 0.14 90 1013.1
20260505101557 57 59 0.0 1.7 0.03 0.49 0.13 90 1013.4
20260505101047 57 0 0.0 1.7 0.04 0.49 0.13 90 1013.5
20260505100551 57 59 0.0 1.7 0.04 0.49 0.13 90 1013.6
20260505100310 57 0 0.0 0.9 0.04 0.49 0.13 90 1013.7
20260505095551 57 0 0.0 2.6 0.04 0.49 0.13 90 1013.7
20260505095050 57 77 0.0 2.6 0.04 0.49 0.13 90 1013.7
20260505094553 57 80 0.9 3.5 0.05 0.49 0.13 90 1013.7
20260505094047 57 79 0.9 4.3 0.05 0.49 0.13 90 1013.7
20260505093549 57 53 1.7 5.2 0.04 0.48 0.12 90 1013.6
20260505093054 57 86 1.7 6.1 0.03 0.47 0.11 90 1013.8
20260505092552 57 77 2.6 6.1 0.02 0.46 0.10 90 1014.1
20260505092050 57 87 0.9 5.2 0.03 0.46 0.10 91 1014.3
20260505091612 57 127 1.7 5.2 0.03 0.46 0.10 91 1014.1
20260505091046 58 131 2.6 5.2 0.02 0.45 0.09 91 1014.1
20260505090547 58 124 1.7 9.6 0.03 0.45 0.09 91 1014.1
20260505090059 58 96 1.7 9.6 0.03 0.45 0.09 90 1014.1
20260505085547 58 120 1.7 3.5 0.04 0.45 0.09 89 1014.3
20260505085049 58 142 0.9 3.5 0.04 0.45 0.09 89 1014.5
20260505084550 58 86 0.9 2.6 0.04 0.44 0.08 89 1014.4
20260505084406 58 77 0.9 1.7 0.04 0.44 0.08 89 1014.7
20260505082549 58 0 0.0 0.0 0.06 0.44 0.08 89 1015.5
20260505082047 58 0 0.0 0.0 0.05 0.43 0.07 89 1015.4
20260505081557 58 0 0.0 0.0 0.06 0.43 0.07 89 1015.4
20260505081049 58 0 0.0 0.0 0.06 0.43 0.07 89 1015.6
20260505080546 58 0 0.0 0.0 0.05 0.42 0.06 90 1015.7
20260505080054 58 0 0.0 0.0 0.06 0.42 0.06 89 1015.8
20260505075548 58 0 0.0 0.0 0.05 0.41 0.05 90 1016.0
20260505075048 58 0 0.0 0.0 0.06 0.41 0.05 89 1016.1
20260505074555 58 0 0.0 0.0 0.05 0.40 0.04 90 1016.1
20260505074050 58 0 0.0 0.0 0.06 0.40 0.04 89 1016.2
20260505073547 58 0 0.0 0.0 0.05 0.39 0.03 89 1016.4
20260505073100 58 0 0.0 0.0 0.05 0.39 0.03 88 1016.2
20260505072548 58 0 0.0 0.0 0.05 0.38 0.02 89 1016.0
20260505072051 58 54 0.0 0.0 0.07 0.38 0.02 89 1016.1
20260505071555 58 0 0.0 0.9 0.07 0.37 0.01 88 1016.0
20260505071048 58 0 0.0 0.9 0.08 0.37 0.01 88 1016.1
20260505070549 58 0 0.0 0.9 0.09 0.37 0.01 87 1016.1
20260505070056 58 0 0.0 0.9 0.09 0.36 0.00 86 1015.8
20260505065548 58 0 0.0 0.9 0.10 0.36 0.36 85 1015.9
20260505065048 58 0 0.0 0.9 0.10 0.35 0.35 87 1015.9
20260505064557 58 0 0.0 0.9 0.11 0.35 0.35 87 1015.9
20260505064048 58 55 0.0 0.9 0.11 0.34 0.34 88 1015.9
20260505063549 58 0 0.0 1.7 0.12 0.34 0.34 87 1015.7
20260505063055 58 0 0.0 1.7 0.12 0.33 0.33 87 1015.8
20260505062549 58 27 0.0 0.9 0.12 0.33 0.33 87 1015.8
20260505062049 58 0 0.0 0.9 0.11 0.31 0.31 87 1015.9
20260505061555 58 0 0.0 1.7 0.11 0.30 0.30 87 1015.8
20260505061048 58 46 0.0 1.7 0.10 0.29 0.29 87 1016.0
20260505060551 58 0 0.0 1.7 0.09 0.28 0.28 88 1016.0
20260505060059 58 51 0.0 0.9 0.09 0.27 0.27 88 1015.8
20260505055548 58 48 0.0 0.9 0.07 0.25 0.25 87 1016.0
20260505055048 58 25 0.0 1.7 0.07 0.25 0.25 87 1015.9
20260505054620 59 0 0.0 2.6 0.07 0.24 0.24 87 1015.7
20260505054048 59 357 0.9 2.6 0.06 0.23 0.23 86 1015.8
20260505053549 59 35 0.0 1.7 0.05 0.22 0.22 84 1015.9
20260505053058 59 84 0.0 0.9 0.04 0.21 0.21 87 1016.0
20260505052637 59 0 0.0 0.9 0.03 0.20 0.20 87 1015.9
20260505051049 59 0 0.0 0.9 0.03 0.19 0.19 86 1015.8
20260505050548 59 0 0.0 0.9 0.03 0.19 0.19 86 1015.7
20260505041604 60 0 0.9 3.5 0.00 0.16 0.16 80 1016.0
20260505041049 60 298 0.0 0.9 0.00 0.16 0.16 81 1015.8
20260505040549 59 0 0.0 0.9 0.01 0.16 0.16 80 1016.0
20260505040100 59 0 0.0 0.9 0.01 0.16 0.16 81 1016.0
20260505035546 59 44 0.0 1.7 0.01 0.16 0.16 80 1015.8
20260505035048 59 44 0.0 1.7 0.02 0.16 0.16 80 1015.7
20260505034555 58 0 0.0 4.3 0.02 0.16 0.16 80 1015.6
20260505034048 58 86 0.9 4.3 0.03 0.16 0.16 79 1015.4
20260505033548 58 138 1.7 5.2 0.03 0.16 0.16 80 1015.2
20260505033052 58 0 0.0 7.8 0.04 0.16 0.16 80 1015.0
20260505032547 58 57 3.5 7.8 0.04 0.16 0.16 77 1014.9
20260505032052 57 57 2.6 6.1 0.05 0.16 0.16 76 1014.7
20260505031604 57 84 1.7 6.1 0.05 0.16 0.16 77 1014.9
20260505031048 57 80 1.7 6.1 0.06 0.16 0.16 78 1015.2
20260505030549 57 92 1.7 4.3 0.06 0.15 0.15 77 1015.4
20260505025549 56 51 1.7 4.3 0.08 0.15 0.15 79 1016.0
20260505025046 56 43 0.9 1.7 0.09 0.14 0.14 80 1016.0
20260505024601 56 77 0.9 1.7 0.09 0.14 0.14 80 1016.2
20260505024048 57 84 0.0 1.7 0.09 0.13 0.13 80 1016.1
20260505023548 57 105 0.0 1.7 0.09 0.13 0.13 81 1016.0
20260505023059 57 89 0.0 1.7 0.08 0.12 0.12 80 1016.2
20260505022547 57 82 0.0 0.9 0.08 0.12 0.12 80 1016.1
20260505022047 58 0 0.0 0.9 0.07 0.11 0.11 75 1016.0
20260505021558 58 0 0.0 0.9 0.07 0.11 0.11 74 1015.9
20260505021048 58 0 0.0 3.5 0.07 0.10 0.10 76 1016.0
20260505020851 58 0 0.0 3.5 0.06 0.09 0.09 73 1015.9
20260505015548 60 0 0.0 0.9 0.04 0.07 0.07 68 1015.9
20260505015049 62 0 0.0 2.6 0.03 0.05 0.05 63 1015.8
20260505014555 62 0 0.0 9.6 0.03 0.05 0.05 55 1015.8